Home > Weather > Chur > Past weeks

Flag for Switzerland Past Weather in Chur, Graubünden, Switzerland — Yesterday and Last 2 Weeks

Now
75 °F

Mild.


Feels Like: 77 °F
Forecast: 58 / 87 °F
Wind: 10 mph from Northeast

Location: Chur

Current Time: May 26, 2016 at 8:41:04 PM

Latest Report: May 26, 2016 at 3:00 PM


Visibility: N/A

Pressure: 29.87 "Hg (27.90 "Hg at 592m altitude)

Humidity: 36%

Dew Point: 46 °F

Location of ChurLocation

Past Weather in Chur — Graph

°F

Chur Temperature Yesterday

Maximum temperature yesterday: 71 °F (at 5:00 PM)
Minimum temperature yesterday: 46 °F (at 4:40 AM)
Average temperature yesterday: 58 °F

High & Low Weather Summary for the Past Weeks

 TemperatureHumidityPressure
High78 °F (May 22, 2:00 PM)96% (May 13, 2:00 AM)30.21 "Hg (May 13, 2:00 AM)
Low43 °F (May 16, 6:00 AM)25% (May 22, 6:00 PM)29.44 "Hg (May 12, 4:00 AM)
Average55 °F70%29.92 "Hg
* Reported May 11 3:00 PM — May 26 3:00 PM, Chur, Weather by CustomWeather, © 2016

Note: Actual official high and low records may vary slightly from our data, if they occured in-between our weather recording intervals... More about our weather records

Advertising

Chur Weather History for the Previous 24 Hours

Scroll right to see more
 ConditionsComfort  
Time TempWeatherWind HumidityBarometerVisibility
3:00 PM
Thu, May 26
75 °FMild.10 mph36%29.87 "HgN/A
2:00 PM75 °FOvercast.9 mph41%29.87 "Hg12 mi
1:00 PM73 °FMild.6 mph41%29.89 "HgN/A
12:00 PM69 °FMild.1 mph47%29.92 "HgN/A
11:00 AM67 °FPartly sunny.3 mph52%29.95 "Hg16 mi
10:00 AM65 °FMild.7 mph57%29.98 "HgN/A
9:00 AM61 °FRefreshingly cool.7 mph59%30.01 "HgN/A
8:00 AM57 °FCool.6 mph68%30.02 "HgN/A
7:00 AM54 °FCool.3 mph77%30.04 "HgN/A
6:00 AM52 °FCool.5 mph83%30.04 "HgN/A
5:00 AM52 °FCool.1 mph87%30.04 "HgN/A
3:00 AM54 °FCool.1 mph83%30.01 "HgN/A
2:00 AM55 °FPassing clouds.1 mph79%30.01 "Hg16 mi
1:00 AM55 °FCool.1 mph82%30.00 "HgN/A
12:00 AM58 °FCool.1 mph70%29.98 "HgN/A
11:00 PM
Wed, May 25
60 °FPassing clouds.5 mph63%29.96 "Hg16 mi
10:00 PM63 °FMild.6 mph56%29.94 "HgN/A
9:00 PM63 °FMild.6 mph55%29.91 "HgN/A
8:00 PM65 °FMild.9 mph52%29.88 "HgN/A
Weather by CustomWeather, © 2016

See weather overviewHow to use our weather pages